Location: Demmingen
(48.6757°N, 10.4375°E)
Time: 21:11:41
(UTC+00:00)

Cosmos 2360 Rocket - Pass Details

Date: 23 May 2024
Orbit: 832 x 846 km, 71.0° (Epoch: 14 June)

Event Time Altitude Azimuth Distance (km) Brightness Sun altitude
Rises 01:57:46 0° 329° (NNW) 3,416 5.6 -11.8°
Reaches altitude 10° 02:00:15 10° 327° (NNW) 2,478 4.9 -11.5°
Maximum altitude 02:05:51 62° 248° (WSW) 947 2.2 -10.9°
Drops below altitude 10° 02:11:25 10° 168° (SSE) 2,460 4.3 -10.3°
Sets 02:13:52 0° 165° (SSE) 3,390 5.0 -10.0°
